Location: Fauquembergues
(50.6005°N, 2.0987°E)
Time: 04:38:21
(UTC+00:00)

Helios 1A - Pass Details

Date: 14 July 2020
Orbit: 587 x 600 km, 98.2° (Epoch: 01 August)

Event Time Altitude Azimuth Distance (km) Brightness Sun altitude
Exits shadow 00:38:49 23° 239° (WSW) 1,278 4.3 -17.2°
Maximum altitude 00:39:59 26° 265° (W) 1,178 4.3 -17.2°
Drops below altitude 10° 00:43:31 10° 323° (NW) 1,929 6.2 -17.1°
Sets 00:45:59 0° 336° (NNW) 2,837 7.4 -17.0°
